Location: The Saddle
(36.8333°N, 80.3417°W)
Time: 13:32:25
(UTC-04:00)

Courier 1B - Pass Details

Date: 23 September 2024
Orbit: 962 x 1208 km, 28.3° (Epoch: 06 October)

Event Time Altitude Azimuth Distance (km) Brightness Sun altitude
Rises 11:03:37 0° 221° (SW) 3,628 10.5 42.1°
Reaches altitude 10° 11:06:50 10° 207° (SSW) 2,695 10.1 42.6°
Maximum altitude 11:11:40 22° 158° (SSE) 1,993 10.5 43.3°
Drops below altitude 10° 11:16:37 10° 110° (ESE) 2,781 10.8 43.9°
Sets 11:19:59 0° 96° (E) 3,775 11.1 44.4°
